Location: Gerlach
(40.6516°N, 119.3568°W)
Time: 04:18:24
(UTC-07:00)

Explorer 11/Cluster Stage 4 - Pass Details

Date: 02 February 2023
Orbit: 466 x 1241 km, 28.8° (Epoch: 02 April)

Event Time Altitude Azimuth Distance (km) Brightness Sun altitude
Exits shadow 05:31:12 - 225° (SW) 3,339 9.4 -18.3°
Reaches altitude 10° 05:31:54 10° 223° (SW) 3,148 9.3 -18.2°
Maximum altitude 05:38:34 29° 167° (SSE) 2,089 8.9 -16.9°
Drops below altitude 10° 05:45:13 10° 111° (ESE) 3,149 10.9 -15.7°
Sets 05:48:25 0° 101° (E) 4,052 12.2 -15.1°
